User: anonymous   Login
Location: Unspecified
(0.0000°N, 0.0000°E)
Time: 16:24:43
(UTC+00:00)
Language:

OPTUS D2 - Orbit

View from above orbital plane
View from above orbital plane
View from above satellite
View from above satellite

Ground track
Ground track

The orbit data is extracted from the following two-line orbital elements,

1 32252U 07044A   14324.62899391 -.00000174  00000-0  00000+0 0  5549
2 32252 000.0184 289.9534 0002933 322.2069 185.8649 01.00271259 26107
Epoch (UTC): 20 November 2014 15:05:45
Eccentricity: 0.0002933
inclination: 0.0184°
perigee height: 35774 km
apogee height: 35799 km
right ascension of ascending node: 289.9534°
argument of perigee: 322.2069°
revolutions per day: 1.00271259
mean anomaly at epoch: 185.8649°
orbit number at epoch: 2610

The dashed part of the orbit path shows where the satellite is in the earth's shadow,  

DLR